Flag for Sweden Weather past 2 weeks in Norrköping, Sweden

Now
63 °F

Light rain. Low clouds.


Feels Like: 63 °F
Forecast: 54 / 70 °F
Wind: 8 mph from East

Location: Norrkoping Airport

Current Time: Jul 6, 2015 at 9:12:34 AM

Latest Report: Jul 6, 2015 at 8:20 AM


Visibility: 6 mi

Pressure: 29.80 "Hg

Humidity: 100%

Dew point: 63 °F

Location of NorrköpingLocation

Historic Weather in Norrköping — Graph

°F

Norrköping temperature yesterday

Maximum temperature yesterday: 77 °F (at 10:20 AM)
Minimum temperature yesterday: 61 °F (at 4:20 AM)
Average temperature yesterday: 69 °F

Past Weeks' High & Low Weather Summary

 TemperatureHumidityPressure
High84 °F (Jul 2, 3:50 PM)100% (Jun 21, 7:20 AM)30.36 "Hg (Jun 21, 7:20 AM)
Low41 °F (Jun 22, 2:20 AM)32% (Jul 2, 1:20 PM)29.62 "Hg (Jun 23, 2:20 PM)
Average62 °F73%29.97 "Hg
* Reported Jun 21 7:20 AM — Jul 6 7:50 AM, Norrköping, Weather by CustomWeather, © 2015

Note: Actual official high and low records may vary slightly from our data, if they occured in-between our weather recording intervals... More about our weather records

Advertising

Norrköping weather history for previous 24 hours

 ConditionsComfort  
Time TempWeatherWind HumidityBarometerVisibility
7:50 AM
Mon, Jul 6
63 °FLight rain. Low clouds.5 mph100%29.80 "Hg6 mi
7:20 AM63 °FDrizzle. Fog.5 mph100%29.80 "HgN/A
6:50 AM63 °FLight rain. Passing clouds.7 mph94%29.83 "HgN/A
6:20 AM63 °FLight rain. Cloudy.6 mph94%29.83 "HgN/A
5:50 AM63 °FDrizzle. Cloudy.5 mph94%29.86 "HgN/A
5:20 AM63 °FLight rain. Passing clouds.6 mph94%29.86 "HgN/A
4:50 AM63 °FRain. Partly cloudy.5 mph94%29.86 "HgN/A
4:20 AM63 °FPartly cloudy.5 mph94%29.89 "HgN/A
3:50 AM63 °FPartly cloudy.7 mph94%29.89 "HgN/A
3:20 AM61 °FOvercast.6 mph100%29.92 "HgN/A
2:50 AM61 °FPartly cloudy.6 mph94%29.92 "HgN/A
2:20 AM61 °FPassing clouds.6 mph94%29.92 "HgN/A
1:50 AM61 °FPassing clouds.7 mph94%29.92 "HgN/A
1:20 AM61 °FPassing clouds.9 mph100%29.92 "HgN/A
12:50 AM61 °FPassing clouds.8 mph100%29.95 "HgN/A
12:20 AM61 °FPartly cloudy.8 mph100%29.95 "HgN/A
11:50 PM
Sun, Jul 5
61 °FPassing clouds.6 mph100%29.98 "HgN/A
11:20 PM61 °FPassing clouds.7 mph100%29.98 "HgN/A
10:50 PM61 °FPassing clouds.6 mph94%29.98 "HgN/A
10:20 PM61 °FCool.6 mph94%29.98 "HgN/A
9:50 PM63 °FMild.7 mph88%29.98 "HgN/A
9:20 PM63 °FSunny.8 mph94%29.98 "Hg10 mi
8:50 PM64 °FSunny.9 mph88%29.98 "Hg10 mi
8:20 PM66 °FSunny.10 mph78%29.98 "Hg10 mi
7:50 PM68 °FSunny.10 mph73%29.98 "Hg10 mi
7:20 PM70 °FSunny.12 mph69%30.01 "Hg10 mi
6:50 PM72 °FSunny.10 mph69%30.01 "Hg10 mi
6:20 PM72 °FSunny.13 mph69%30.01 "Hg10 mi
5:50 PM72 °FSunny.14 mph73%30.01 "Hg10 mi
5:20 PM72 °FSunny.13 mph69%30.04 "Hg10 mi
4:50 PM72 °FSunny.13 mph69%30.04 "Hg10 mi
4:20 PM72 °FSunny.13 mph69%30.04 "Hg10 mi
3:50 PM73 °FSunny.13 mph65%30.04 "Hg10 mi
3:20 PM73 °FSunny.12 mph69%30.04 "Hg10 mi
2:50 PM73 °FSunny.12 mph69%30.04 "Hg10 mi
2:20 PM73 °FSunny.12 mph65%30.04 "Hg10 mi
1:50 PM75 °FSunny.10 mph61%30.04 "Hg10 mi
1:20 PM77 °FSunny.9 mph61%30.04 "Hg10 mi
12:50 PM75 °FSunny.9 mph61%30.04 "Hg10 mi
12:20 PM75 °FSunny.9 mph65%30.04 "Hg10 mi
11:50 AM75 °FMild.10 mph61%30.04 "HgN/A
11:20 AM75 °FMild.9 mph65%30.04 "HgN/A
10:50 AM75 °FMild.10 mph69%30.04 "HgN/A
10:20 AM77 °FPassing clouds.6 mph65%30.04 "HgN/A
9:50 AM75 °FSunny.7 mph61%30.04 "Hg10 mi
9:20 AM75 °FSunny.6 mph65%30.04 "Hg10 mi
Weather by CustomWeather, © 2015

See weather overviewHow to use our weather pages